STARLINK-3663, 51976

Orbit data source: Space-Track

STARLINK-3663, 51976 is a payload satellite owned by SpaceX/Seattle (US) in LEO that was launched on Wed, 09 Mar 2022 UTC via an FALCON 9 launch vehicle from the Air Force Eastern Test Range (AFETR). Payload-class satellites include a variety of spacecraft equipped with specific instruments for various scientific and technological missions. These include communications satellites like Starlink; space stations such as the ISS; scientific satellites like the Hubble; Earth observation satellites from companies like Planet Labs, Umbra, and HawkEye 360; GPS; miniature CubeSats for education and research; and military/defense satellites.

Not visible in the next 10 days
Identifier
51976, 2022-025W
Orbit
LEO
Country
Flag of USUS
Related business
Manufacturer
SpaceX/Seattle
Mission
Partially operational Commercial Communications
Bus & Motor
STARLINK, Unknown motor
Mass
297 kg wet, ~275 kg dry
Launch date (UTC)
2022-03-09 (4 years ago)
Launch vehicle
FALCON 9
Launch site
Air Force Eastern Test Range (AFETR)
Object type
Payload
Rocket body
Debris
Shape & HBR
Box + 1 Pan, 10.1 m
Radar Cross Section
13.562 m², Large (>1 m²)

Expand to show TLE details & history
Last TLE update: 7 hours ago

TLE from 7 hours ago
0 STARLINK-3663
1 51976U 22025W   25347.17422846  .01502669  19141-2  96515-3 0  9990
2 51976  53.1977 320.8426 0003328  79.0029 281.1384 16.17299032209503
Epoch: 2025-12-13T04:10Z
TLE epoch observation values (Epoch: 2025-12-13T04:10:53.338Z)
Latitude
-0.00006°
Longitude
176.01503°
Altitude
227.409 km
Speed
7.772 km/s
True Right ascension
21h 23m 22s
True Declination
0° 00' 00"
Sunlit
Object was in daylight at epoch
Visualization orbit readout
Latitude
Unknown
Longitude
Unknown
Altitude
Unknown
Speed
Unknown
Apparent Right ascension
Unknown
Apparent Declination
Unknown
Sunlit
N/A
Visualization observer readout
Local Sidereal Time
09:19:33
Azimuth
Unknown
Elevation
Unknown
Doppler factor
Unknown
Orbital elements
Apogee altitude
229.353 km
Perigee altitude
224.957 km
Semi-major axis
6,605.292 km
Eccentricity
0.00033
Inclination
53.1977°
RAAN
320.8426°
Arg. of periapsis
79.0029°
True anomaly
281.10098°
Mean anomaly
281.1384°
Eccentric anomaly
281.11969°
Mean motion
4.04301 °/min
Orbital period
89.04 mins
BSTAR
0.00096515
Loading maneuver chart data...
Computing Atmospheric mass density...
Loading historical data...
Loading historical data...
Loading historical data...
Loading historical data...
Loading historical data...
Loading historical data...
Loading historical data...

Documentation

Showing up to 5 results
|